User: anonymous   Login
Location: Belfast
(54.5830°N, 5.9330°W)
Time: 06:20:39
(UTC+00:00)
Language:

Coronas F rocket - Orbit

View from above orbital plane
View from above orbital plane
View from above satellite
View from above satellite

Ground track
Ground track

The orbit data is extracted from the following two-line orbital elements,

1 26874U 01032B   17081.93380362 +.00185596 +14480-4 +22063-3 0  9995
2 26874 082.4477 331.9004 0003491 168.7400 191.3961 16.08422825879961
Epoch (UTC): 22 March 2017 22:24:40
Eccentricity: 0.0003491
inclination: 82.4477°
perigee height: 249 km
apogee height: 253 km
right ascension of ascending node: 331.9004°
argument of perigee: 168.7400°
revolutions per day: 16.08422825
mean anomaly at epoch: 191.3961°
orbit number at epoch: 87996

The dashed part of the orbit path shows where the satellite is in the earth's shadow,  

DLR